Notices

What's New in latest Release from April 7th, 2021:

- Updated Glossary, including Speed of Maximum Gust, and Total Hourly Precipitation

- Updated national and regional climate services offices contacts and prices information

- Addition of station inventory lists for 1981-2010, 1971-2000, and 1961-1990 Normals.

If you haven't already, please take our survey and provide feedback about our website: https://eccc.sondage-survey.ca/f/LanguageSelection.aspx?s=442ca660-fcf1-47c0-95a9-59707d6fd709

Hourly Data Report for March 02, 2004

SHERBROOKE A
QUEBEC

45°26'00.000" N
71°41'00.000" W
241.40 m
7028124
71610
YSC

Download Data

Hourly Data (March 2004)
Hourly Data Report for March 2, 2004
TIME
LST
Temp Definition
°C
Dew Point Definition
°C
Rel Hum Definition
%
Precip. Amount Definition
mm

Wind Dir Definition
10's deg

Wind Spd Definition
km/h
Visibility Definition
km
Stn Press Definition
kPa
Hmdx Definition


Wind Chill Definition


Weather Definition


00:00 0.2 -7.0 58   10 7 15.0 98.95      
01:00 -0.1 -6.9 60   5 6 15.0 98.89   -2  
02:00 -0.2 -6.3 63   9 4 15.0 98.80   -1  
03:00 1.5 -5.8 58   11 7 15.0 98.71      
04:00 0.6 -5.2 65     0 15.0 98.70      
05:00 1.0 -3.5 72   11 7 4.8 98.64     Rain
06:00 1.8 -3.1 70   11 6 8.0 98.50     Rain
07:00 1.8 -2.5 73   5 4 6.4 98.42      
08:00 4.0 -1.4 68   7 6 24.1 98.34     Mostly Cloudy
09:00 5.1 -1.4 63   3 4 24.1 98.21     Cloudy
10:00 5.5 -0.2 67     0 19.3 98.12     Rain
11:00 6.2 -1.1 59   23 4 19.3 98.01     Rain
12:00 5.8 -0.4 64   18 7 24.1 97.86     Cloudy
13:00 6.7 0.4 64   24 6 19.3 97.75     Cloudy
14:00 6.7 0.5 65   24 6 19.3 97.71     Rain
15:00 8.7 1.2 59   20 13 24.1 97.63     Mostly Cloudy
16:00 7.3 1.3 66   22 19 19.3 97.65     Rain
17:00 7.0 0.8 65   25 19 24.1 97.72     Mostly Cloudy
18:00 6.7 -1.0 58   25 17 15.0 97.78      
19:00 6.1 -0.8 61   25 28 15.0 97.87     Rain
20:00 5.5 -1.7 60   26 24 15.0 97.96     Rain
21:00 4.9 -1.6 63   26 32 15.0 97.99     Rain
22:00 4.5 -1.7 64   25 33 15.0 98.05     Rain
23:00 4.0 -1.9 65   26 26 15.0 98.12     Rain

Notes on Data Quality.

Legend

  • E = Estimated
  • M = Missing
  • NA = Not Available*
  • [empty] = Indicates an unobserved value
Date modified: